[[{"header":{"parameterUnit":"m.s-1","parameterCategory":2,"la1":30.2991,"la2":30.254,"lo1":-89.0895,"lo2":-89.0444,"dy":0.0017,"dx":0.0017,"nx":28,"ny":28,"refTime":"2024-04-12T09:00:00:Z","depth":"0","parameterNumber":2,"parameterNumberName":"U-component_of_CURRENTS"},"data":[0,0,0,0,0,0,0,0,0,0,0,0,0,0,0,0,0,0,0,0,0,0,0,0,0,0,0,0,0,0,0,0,0,0,0,0,0,0,0,0,0,0,0,0,0,0,0,0,0,0,0,0,0,0,0,0,0,0,0.4487,0.449,0,0.4675,0.4677,0.4678,0.4806,0.4807,0.4808,0.481,0.4894,0.4895,0.4896,0,0,0,0,0,0,0,0,0,0,0,0,0,0.4292,0.4295,0.4487,0.449,0.4493,0.4675,0.4677,0.4679,0.4806,0.4807,0.4809,0.481,0.4893,0.4894,0.4896,0,0,0,0,0,0,0,0,0,0,0,0,0,0.4414,0.4295,0.4487,0.4581,0.4591,0.4674,0.4677,0.468,0.4805,0.4807,0.4809,0.4811,0.4893,0.4894,0.4896,0.4867,0,0,0.4901,0.4901,0,0,0,0,0,0,0,0,0.4407,0.442,0.4564,0.4575,0.4587,0.4723,0.4639,0.4738,0.4805,0.472,0.481,0.4812,0.4828,0.4835,0.4862,0.4871,0.4874,0.4901,0.4902,0.4902,0.4903,0,0,0,0,0,0,0,0.4398,0.4413,0.4557,0.4567,0.4581,0.4632,0.4651,0.4659,0.4755,0.4727,0.4738,0.4765,0.4833,0.486,0.4864,0.4876,0.4901,0.4902,0.4903,0.4904,0.4888,0.4887,0,0,0,0,0,0,0.4379,0.4405,0.4552,0.4563,0.4504,0.4634,0.4655,0.4674,0.4758,0.4775,0.4763,0.477,0.4856,0.4862,0.4868,0.4869,0.4902,0.4904,0.4905,0.4889,0.4888,0.4886,0,0,0,0,0,0,0.4373,0.4389,0.4544,0.4492,0.4516,0.4636,0.4656,0.4676,0.4713,0.4787,0.4802,0.478,0.4858,0.4865,0.4882,0.4872,0.4905,0.4906,0.4891,0.4889,0.4887,0.4852,0,0,0,0,0,0,0.4367,0.4386,0.4373,0.4491,0.4519,0.4581,0.4655,0.4679,0.4728,0.4739,0.4806,0.4816,0.486,0.488,0.4884,0.4875,0.4907,0.4893,0.489,0.4888,0.4854,0.4849,0.4844,0,0,0,0,0,0.4359,0.4328,0.4371,0.4389,0.4504,0.458,0.4598,0.4687,0.4727,0.4729,0.4784,0.4814,0.4866,0.488,0.4885,0.4876,0.4894,0.4891,0.4888,0.4857,0.485,0.4844,0,0,0,0,0,0,0.4209,0.4342,0.4392,0.4396,0.448,0.4603,0.4603,0.4676,0.4723,0.4726,0.4801,0.4813,0.4839,0.4842,0.4856,0.4861,0.4882,0.488,0.4857,0.485,0.4845,0.4877,0.4908,0,0,0,0,0,0.4177,0.4202,0.4332,0.4328,0.4366,0.4483,0.452,0.459,0.466,0.4686,0.4738,0.4778,0.4826,0.4826,0.4866,0.4846,0.4911,0.484,0.4835,0.483,0.4857,0.4965,0.4973,0.4876,0.4876,0.4877,0,0,0.4116,0.419,0.4202,0.4301,0.4367,0.4413,0.4508,0.4556,0.46,0.4679,0.4715,0.4772,0.4823,0.4837,0.4842,0.4836,0.4879,0.4826,0.4823,0.4852,0.4963,0.4973,0.4982,0.4874,0.4875,0.4875,0,0,0.4033,0.4073,0.409,0.4153,0.426,0.4333,0.4346,0.4468,0.4523,0.4565,0.4654,0.4707,0.4733,0.4799,0.4829,0.4802,0.4869,0.4788,0.4765,0.4868,0.4879,0.4889,0.4942,0.4957,0.4759,0.4759,0.4759,0,0.3968,0.4013,0.4096,0.4132,0.4188,0.4294,0.4335,0.4387,0.4499,0.4567,0.4558,0.4706,0.4727,0.4818,0.4802,0.4796,0.4852,0.479,0.4867,0.4879,0.489,0.4943,0.496,0.4757,0.4757,0.4757,0.4757,0,0.3931,0.3961,0.3962,0.406,0.4108,0.415,0.4258,0.431,0.4379,0.4473,0.4584,0.4638,0.4746,0.4731,0.4751,0.484,0.4852,0.4874,0.4895,0.4899,0.4951,0.4971,0.4754,0.4755,0.4755,0.4756,0,0,0.3857,0.3935,0.3944,0.3996,0.4092,0.4146,0.4193,0.4327,0.4423,0.4476,0.4617,0.4656,0.4736,0.4775,0.4819,0.4865,0.4953,0.4881,0.4887,0.4953,0.5158,0.5016,0.5024,0.5,0.5004,0.5008,0.5149,0,0.3838,0.3883,0.3938,0.3988,0.4034,0.4139,0.4201,0.4316,0.4421,0.4558,0.4647,0.4773,0.4736,0.481,0.4851,0.4975,0.5009,0.4911,0.5129,0.5135,0.5027,0.5044,0.4862,0.4961,0.5169,0.5172,0.5174,0,0.3832,0.3874,0.3912,0.403,0.4065,0.4102,0.4282,0.436,0.4549,0.464,0.4767,0.4866,0.4979,0.4937,0.511,0.5056,0.5096,0.5144,0.5152,0.5058,0.503,0.4998,0.4989,0.4889,0.5205,0.5202,0.52,0,0.3799,0.3878,0.3915,0.3944,0.4065,0.4129,0.4219,0.4394,0.4505,0.4722,0.4826,0.4985,0.5083,0.518,0.5241,0.5209,0.5416,0.5399,0.53,0.529,0.5198,0.5171,0.5141,0.5509,0.5508,0.5508,0.5507,0,0.3789,0.3826,0.3903,0.3926,0.4019,0.4121,0.4262,0.4387,0.4583,0.4722,0.4875,0.4994,0.515,0.5272,0.5313,0.5359,0.5481,0.5315,0.533,0.5167,0.5138,0.5096,0.5059,0.5513,0.5512,0.5511,0.551,0,0.3739,0.3782,0.3836,0.3951,0.3996,0.4068,0.4254,0.4373,0.4559,0.4746,0.4819,0.5039,0.519,0.5308,0.5478,0.5434,0.5365,0.5488,0.5249,0.523,0.4988,0.4955,0.4785,0.4648,0.5414,0.5412,0.541,0,0.3711,0.3728,0.3827,0.3874,0.3922,0.4043,0.4143,0.4337,0.4459,0.4748,0.4832,0.5039,0.5141,0.5325,0.5341,0.5407,0.5274,0.5231,0.5115,0.4952,0.4932,0.4743,0.4627,0.4978,0.4973,0.4968,0.4965,0,0.3674,0.3703,0.3749,0.3835,0.3919,0.4014,0.4162,0.4237,0.4476,0.4594,0.4771,0.488,0.5066,0.5044,0.5113,0.5128,0.4979,0.5134,0.507,0.4662,0.436,0.4242,0.4882,0.4925,0.4929,0.4932,0.4934,0.4935,0.3652,0.3663,0.3731,0.3794,0.3885,0.3962,0.397,0.4114,0.4222,0.4329,0.4566,0.4616,0.4754,0.4822,0.4801,0.4681,0.4677,0.4565,0.4566,0.4408,0.417,0.4672,0.4656,0.4659,0.4661,0.4662,0.4664,0,0.3608,0.3631,0.37,0.3745,0.3766,0.3855,0.3954,0.3906,0.3896,0.4065,0.4132,0.4243,0.4232,0.4327,0.4331,0.418,0.3991,0.4077,0.3824,0.376,0.4328,0.4202,0.396,0.396,0.396,0.396,0.396,0.396,0.3599,0.3601,0.3605,0.3591,0.3615,0.3552,0.3539,0.3484,0.354,0.3509,0.3535,0.3666,0.3951,0.4051,0.3949,0.3849,0.3593,0.3399,0.3409,0.3885,0.3931,0.3975,0.3848,0.3535,0.3535,0.2683,0.2676,0.2672]},{"header":{"parameterUnit":"m.s-1","parameterCategory":2,"la1":30.2991,"la2":30.254,"lo1":-89.0895,"lo2":-89.0444,"dy":0.0017,"dx":0.0017,"nx":28,"ny":28,"refTime":"2024-04-12T09:00:00:Z","depth":"0","parameterNumber":3,"parameterNumberName":"V-component_of_CURRENTS"},"data":[0,0,0,0,0,0,0,0,0,0,0,0,0,0,0,0,0,0,0,0,0,0,0,0,0,0,0,0,0,0,0,0,0,0,0,0,0,0,0,0,0,0,0,0,0,0,0,0,0,0,0,0,0,0,0,0,0,0,-0.0131,-0.0133,0,-0.0301,-0.0303,-0.0305,-0.0419,-0.042,-0.042,-0.0421,-0.0559,-0.0562,-0.0566,0,0,0,0,0,0,0,0,0,0,0,0,0,-0.0003,-0.0004,-0.0131,-0.0133,-0.0135,-0.03,-0.0303,-0.0305,-0.0419,-0.042,-0.042,-0.0421,-0.0558,-0.0562,-0.0566,0,0,0,0,0,0,0,0,0,0,0,0,0,-0.0106,-0.0005,-0.0131,-0.021,-0.0219,-0.03,-0.0303,-0.0306,-0.0419,-0.042,-0.0421,-0.0421,-0.0557,-0.0562,-0.0566,-0.0578,0,0,-0.0581,-0.0583,0,0,0,0,0,0,0,0,-0.01,-0.0111,-0.0196,-0.0205,-0.0214,-0.0338,-0.0309,-0.0395,-0.0419,-0.0345,-0.0421,-0.0422,-0.048,-0.0491,-0.0525,-0.0584,-0.059,-0.0581,-0.0584,-0.0586,-0.0587,0,0,0,0,0,0,0,-0.0093,-0.0105,-0.0201,-0.0198,-0.0209,-0.027,-0.0285,-0.0326,-0.0407,-0.0352,-0.036,-0.0375,-0.0485,-0.052,-0.0529,-0.0592,-0.0581,-0.0585,-0.0588,-0.059,-0.0642,-0.064,0,0,0,0,0,0,-0.0061,-0.0097,-0.0195,-0.0206,-0.0156,-0.0271,-0.0288,-0.0299,-0.0407,-0.0424,-0.0374,-0.0379,-0.0512,-0.0523,-0.0534,-0.0513,-0.0586,-0.059,-0.0593,-0.0643,-0.0642,-0.064,0,0,0,0,0,0,-0.0058,-0.0068,-0.0188,-0.0154,-0.0173,-0.0271,-0.0284,-0.0302,-0.0329,-0.0424,-0.0441,-0.038,-0.0513,-0.0527,-0.056,-0.0521,-0.0593,-0.0597,-0.0645,-0.0643,-0.0641,-0.0496,0,0,0,0,0,0,-0.0053,-0.0066,-0.0056,-0.0151,-0.0174,-0.0209,-0.0283,-0.0304,-0.0336,-0.0345,-0.0435,-0.045,-0.0515,-0.0553,-0.0565,-0.0528,-0.0601,-0.0647,-0.0644,-0.0641,-0.0503,-0.049,-0.0478,0,0,0,0,0,-0.0048,-0.0024,-0.0054,-0.0066,-0.0159,-0.0207,-0.0223,-0.0299,-0.0334,-0.0329,-0.04,-0.0447,-0.0544,-0.0556,-0.057,-0.0534,-0.0648,-0.0645,-0.0642,-0.0509,-0.0492,-0.0478,0,0,0,0,0,0,0.0036,-0.0036,-0.0071,-0.0071,-0.0123,-0.0224,-0.0226,-0.0281,-0.0335,-0.034,-0.0436,-0.0455,-0.0471,-0.0519,-0.053,-0.0541,-0.06,-0.06,-0.0494,-0.0479,-0.0467,-0.0411,-0.0604,0,0,0,0,0,0.0062,0.0061,-0.002,-0.0017,-0.0035,-0.0127,-0.0154,-0.0203,-0.0268,-0.0294,-0.0362,-0.0424,-0.047,-0.0487,-0.054,-0.0541,-0.0562,-0.0526,-0.0513,-0.0502,-0.0466,-0.0468,-0.0452,-0.0629,-0.0629,-0.0629,0,0,0.0092,0.0056,0.0053,0.0001,-0.0047,-0.0055,-0.0145,-0.0167,-0.0174,-0.0296,-0.0316,-0.0385,-0.0463,-0.0475,-0.0484,-0.0508,-0.0463,-0.0498,-0.0488,-0.0457,-0.0463,-0.0446,-0.043,-0.0627,-0.0627,-0.0628,0,0,0.0157,0.0128,0.0145,0.0117,0.0066,0.0014,0.0019,-0.0067,-0.01,-0.0131,-0.0219,-0.0254,-0.0334,-0.0374,-0.0407,-0.035,-0.0403,-0.0371,-0.0254,-0.0257,-0.0241,-0.0228,-0.0227,-0.0215,-0.0356,-0.0356,-0.0355,0,0.0194,0.0203,0.0146,0.0158,0.0146,0.0058,0.0075,0.0036,-0.005,-0.0058,-0.0111,-0.0205,-0.0278,-0.0278,-0.0268,-0.0317,-0.0329,-0.0305,-0.0237,-0.0225,-0.0214,-0.0216,-0.0205,-0.0348,-0.0349,-0.035,-0.0351,0,0.0261,0.0273,0.0289,0.0274,0.026,0.0266,0.0207,0.0197,0.0144,0.0095,0.0078,-0.0023,-0.007,-0.0103,-0.0174,-0.0128,-0.0165,-0.0227,-0.0268,-0.0187,-0.0196,-0.0186,-0.0338,-0.034,-0.0343,-0.0344,0,0,0.0318,0.0332,0.0337,0.0356,0.0323,0.0321,0.0336,0.032,0.0348,0.0271,0.0305,0.0209,0.016,0.0122,0.0036,0.0031,0.008,-0.005,-0.0054,-0.0034,0.0086,0.0017,0.002,0.0029,0.0031,0.0033,0.005,0,0.038,0.0444,0.0426,0.0485,0.051,0.0463,0.0489,0.0472,0.0442,0.0459,0.0382,0.0372,0.0245,0.0234,0.0212,0.011,0.0111,0.0082,-0.0008,-0.0009,-0.0069,0.0031,0.0048,0.0061,0.0059,0.006,0.0062,0,0.0441,0.0479,0.0556,0.0599,0.0607,0.0636,0.0674,0.0685,0.069,0.0673,0.066,0.0591,0.0574,0.0455,0.0365,0.0351,0.0248,0.0165,0.0162,0.0062,-0.006,-0.0024,0.0077,-0.013,0.0075,0.0074,0.0073,0,0.0509,0.0565,0.0638,0.0651,0.0689,0.0727,0.0746,0.0759,0.0802,0.0828,0.0875,0.081,0.0802,0.0681,0.0489,0.044,0.0393,0.0294,0.0143,0.0136,0.0117,0.0105,0.0024,0.026,0.026,0.026,0.026,0,0.0577,0.0631,0.0685,0.0727,0.0827,0.0819,0.0925,0.0933,0.0994,0.1093,0.1003,0.1071,0.0859,0.0786,0.0595,0.0413,0.0473,0.0206,0.0152,0.0165,0.0157,-0.0056,-0.018,0.026,0.026,0.026,0.026,0,0.0635,0.0668,0.0757,0.0831,0.0865,0.0938,0.1045,0.1126,0.1165,0.1304,0.1331,0.1289,0.119,0.0966,0.0769,0.0557,0.0262,0.0294,0.0324,0.0272,-0.0093,-0.0209,-0.0339,-0.0426,0.0148,0.0147,0.0146,0,0.0669,0.0727,0.0844,0.0913,0.0955,0.1063,0.1151,0.121,0.1313,0.1446,0.1537,0.1486,0.1475,0.1156,0.0782,0.0467,0.0249,0.0248,0.0144,-0.007,-0.0239,-0.0333,-0.0403,0.0181,0.018,0.0179,0.0179,0,0.0736,0.0783,0.0863,0.1012,0.1121,0.1248,0.1382,0.1492,0.1598,0.1726,0.1864,0.1872,0.1568,0.1244,0.078,0.0545,0.0102,0.0221,0.0009,-0.0194,-0.0304,-0.0429,0.0117,0.0173,0.0174,0.0174,0.0175,0.0175,0.0788,0.0859,0.0976,0.1116,0.1247,0.1421,0.154,0.17,0.1891,0.2083,0.2085,0.2141,0.1674,0.1041,0.0683,0.0042,0.0026,-0.0166,-0.0277,-0.0343,-0.0462,0.0067,0.0038,0.0038,0.0037,0.0037,0.0037,0,0.0849,0.0937,0.1069,0.1242,0.1396,0.1456,0.1687,0.1821,0.2055,0.2235,0.2339,0.218,0.1585,0.0988,0.0118,-0.036,-0.0517,-0.061,-0.0721,-0.0762,-0.0268,-0.0304,-0.0419,-0.0419,-0.0419,-0.0419,-0.0419,-0.0418,0.0885,0.1016,0.1087,0.1336,0.1463,0.1674,0.1809,0.2011,0.2187,0.2407,0.2475,0.2484,0.2059,0.0504,-0.0564,-0.081,-0.1108,-0.1194,-0.1355,-0.1021,-0.0988,-0.0956,-0.1019,-0.1282,-0.1283,-0.1778,-0.1783,-0.1787]}],[{"header":{"parameterUnit":"m.s-1","parameterCategory":2,"la1":30.2991,"la2":30.254,"lo1":-89.0895,"lo2":-89.0444,"dy":0.0017,"dx":0.0017,"nx":28,"ny":28,"refTime":"2024-04-12T09:00:00:Z","depth":"2","parameterNumber":2,"parameterNumberName":"U-component_of_CURRENTS"},"data":[0,0,0,0,0,0,0,0,0,0,0,0,0,0,0,0,0,0,0,0,0,0,0,0,0,0,0,0,0,0,0,0,0,0,0,0,0,0,0,0,0,0,0,0,0,0,0,0,0,0,0,0,0,0,0,0,0,0,0.331,0.331,0,0.3381,0.3381,0.3382,0.3452,0.3453,0.3454,0.3455,0.3458,0.3457,0.3456,0,0,0,0,0,0,0,0,0,0,0,0,0,0.3222,0.3223,0.3309,0.331,0.3311,0.338,0.3381,0.3382,0.3452,0.3453,0.3455,0.3456,0.3458,0.3457,0.3456,0,0,0,0,0,0,0,0,0,0,0,0,0,0.3272,0.3223,0.3309,0.3355,0.336,0.338,0.3381,0.3383,0.3452,0.3454,0.3455,0.3456,0.3458,0.3457,0.3456,0.3419,0,0,0.3452,0.3451,0,0,0,0,0,0,0,0,0.3269,0.3276,0.3347,0.3352,0.3357,0.341,0.3351,0.3391,0.3452,0.3416,0.3455,0.3457,0.3434,0.3435,0.3446,0.3419,0.3419,0.3452,0.3451,0.3451,0.345,0,0,0,0,0,0,0,0.3266,0.3273,0.3337,0.3348,0.3354,0.3368,0.3376,0.336,0.3415,0.342,0.3425,0.3433,0.3437,0.3447,0.3446,0.3419,0.3452,0.3451,0.345,0.345,0.3525,0.3528,0,0,0,0,0,0,0.3257,0.3269,0.3335,0.3339,0.3317,0.3368,0.3378,0.3391,0.3417,0.3423,0.3432,0.3436,0.3448,0.3447,0.3446,0.349,0.3451,0.3449,0.3449,0.3523,0.3526,0.3529,0,0,0,0,0,0,0.3255,0.3263,0.3332,0.3306,0.3316,0.3368,0.3382,0.3392,0.3427,0.3427,0.3432,0.3461,0.3449,0.3448,0.3479,0.3487,0.3449,0.3448,0.3519,0.3524,0.3527,0.3522,0,0,0,0,0,0,0.3252,0.3261,0.3267,0.3306,0.3317,0.3345,0.3381,0.3392,0.3429,0.3436,0.3452,0.3453,0.345,0.3481,0.3478,0.3485,0.3447,0.3516,0.3521,0.3526,0.3518,0.3525,0.3531,0,0,0,0,0,0.3249,0.3248,0.3267,0.3275,0.3324,0.3345,0.3352,0.3393,0.3429,0.3434,0.3478,0.3454,0.3512,0.3482,0.3477,0.3484,0.3513,0.352,0.3526,0.3516,0.3524,0.3531,0,0,0,0,0,0,0.3212,0.3256,0.3278,0.3291,0.3317,0.3357,0.3367,0.3402,0.3441,0.3457,0.3472,0.3475,0.35,0.351,0.3476,0.3533,0.3515,0.352,0.3509,0.3516,0.3523,0.3526,0.3446,0,0,0,0,0,0.3206,0.3221,0.3259,0.3271,0.3284,0.3331,0.3348,0.3378,0.3417,0.3438,0.3457,0.3493,0.3517,0.3533,0.3539,0.3562,0.3588,0.3576,0.3582,0.3587,0.3595,0.3664,0.3676,0.3549,0.3549,0.3549,0,0,0.3193,0.3221,0.3229,0.3264,0.3292,0.3317,0.3346,0.3373,0.3407,0.3426,0.3477,0.3494,0.3527,0.3556,0.3571,0.357,0.3639,0.3595,0.3598,0.3603,0.3671,0.3683,0.3694,0.3554,0.3553,0.3552,0,0,0.3179,0.3203,0.3214,0.3239,0.328,0.3307,0.332,0.3368,0.3402,0.3443,0.3481,0.3523,0.3548,0.3586,0.3608,0.3659,0.3657,0.3664,0.3702,0.3769,0.3779,0.3788,0.3831,0.3844,0.3682,0.3682,0.3682,0,0.3166,0.3191,0.3217,0.3241,0.3266,0.3308,0.3332,0.3366,0.3423,0.3459,0.346,0.3559,0.3565,0.3642,0.3664,0.3666,0.3702,0.3657,0.3773,0.3783,0.3792,0.3834,0.3849,0.3682,0.3682,0.3682,0.3682,0,0.3167,0.3192,0.3199,0.325,0.3274,0.3295,0.3347,0.3386,0.3431,0.3471,0.3544,0.3579,0.3653,0.3658,0.3668,0.3752,0.3754,0.3754,0.374,0.3803,0.3845,0.386,0.3683,0.3683,0.3683,0.3683,0,0,0.3132,0.3189,0.3195,0.3227,0.3283,0.3306,0.3363,0.3426,0.3493,0.3533,0.362,0.3661,0.3698,0.373,0.376,0.3814,0.3892,0.3816,0.3819,0.3834,0.4035,0.3942,0.3949,0.3913,0.3916,0.3918,0.4033,0,0.3131,0.3168,0.3202,0.325,0.3275,0.3336,0.3388,0.3454,0.352,0.3608,0.3664,0.3742,0.3725,0.3777,0.3826,0.3886,0.3934,0.3861,0.3993,0.3997,0.3886,0.3964,0.3644,0.3712,0.4048,0.405,0.4052,0,0.3125,0.3155,0.319,0.3268,0.3287,0.3326,0.3437,0.3494,0.3614,0.3671,0.3765,0.3817,0.3919,0.3888,0.402,0.398,0.4006,0.4034,0.404,0.3965,0.3933,0.3709,0.3726,0.4077,0.4075,0.4073,0.4071,0,0.3088,0.3152,0.318,0.3204,0.3291,0.3337,0.3397,0.3513,0.3581,0.3734,0.3814,0.3922,0.4007,0.4067,0.4121,0.4091,0.4247,0.4217,0.4155,0.4148,0.3908,0.3874,0.4296,0.4296,0.4296,0.4295,0.4295,0,0.3069,0.3098,0.3171,0.3189,0.3246,0.3324,0.3414,0.35,0.3635,0.3723,0.3854,0.3948,0.4058,0.4153,0.4172,0.4217,0.4298,0.4176,0.4181,0.3897,0.3864,0.4204,0.4191,0.43,0.4299,0.4298,0.4297,0,0.302,0.3063,0.3107,0.3197,0.3226,0.3273,0.3401,0.3474,0.3625,0.3757,0.3813,0.3996,0.4125,0.4214,0.4323,0.4287,0.4333,0.4316,0.3964,0.3925,0.4174,0.4161,0.4274,0.4272,0.427,0.4268,0.4267,0,0.2994,0.3009,0.3093,0.3116,0.3158,0.3239,0.3293,0.3441,0.3524,0.3767,0.3822,0.401,0.4097,0.4241,0.4222,0.4258,0.4321,0.3958,0.3832,0.4182,0.4177,0.4166,0.4156,0.3514,0.3507,0.3501,0.3496,0,0.2947,0.2981,0.3014,0.3058,0.3111,0.3158,0.3255,0.3308,0.3492,0.361,0.375,0.3846,0.4011,0.3899,0.3963,0.3932,0.3928,0.3838,0.4322,0.3566,0.3474,0.3466,0.348,0.3443,0.3448,0.3452,0.3455,0.3457,0.2908,0.2914,0.2957,0.2984,0.3035,0.3049,0.3042,0.3152,0.3229,0.3353,0.354,0.3581,0.3644,0.3578,0.3483,0.3416,0.3686,0.3505,0.352,0.3543,0.3431,0.3341,0.3263,0.3267,0.327,0.3273,0.3276,0,0.2833,0.2847,0.2877,0.2882,0.2866,0.2939,0.2983,0.2942,0.2953,0.3105,0.3187,0.2982,0.2942,0.3005,0.283,0.2843,0.2785,0.2715,0.26,0.2658,0.2708,0.2549,0.2149,0.2145,0.2142,0.2138,0,0,0.2795,0.2773,0.2772,0.2694,0.2702,0.2624,0.2608,0.2576,0.2619,0.2592,0.2591,0.2832,0.2938,0.2503,0.2457,0.2264,0.2434,0.2178,0.3093,0.3018,0.3062,0.3192,0.3016,0,0,0,0,0]},{"header":{"parameterUnit":"m.s-1","parameterCategory":2,"la1":30.2991,"la2":30.254,"lo1":-89.0895,"lo2":-89.0444,"dy":0.0017,"dx":0.0017,"nx":28,"ny":28,"refTime":"2024-04-12T09:00:00:Z","depth":"2","parameterNumber":3,"parameterNumberName":"V-component_of_CURRENTS"},"data":[0,0,0,0,0,0,0,0,0,0,0,0,0,0,0,0,0,0,0,0,0,0,0,0,0,0,0,0,0,0,0,0,0,0,0,0,0,0,0,0,0,0,0,0,0,0,0,0,0,0,0,0,0,0,0,0,0,0,0.0161,0.0161,0,0.0075,0.0074,0.0073,0.001,0.001,0.0009,0.0009,-0.0063,-0.0064,-0.0066,0,0,0,0,0,0,0,0,0,0,0,0,0,0.021,0.021,0.0162,0.0161,0.016,0.0075,0.0074,0.0072,0.001,0.001,0.0009,0.0009,-0.0062,-0.0064,-0.0066,0,0,0,0,0,0,0,0,0,0,0,0,0,0.0162,0.021,0.0162,0.0119,0.0115,0.0075,0.0074,0.0072,0.001,0.001,0.0009,0.0008,-0.0062,-0.0064,-0.0066,-0.0069,0,0,-0.0073,-0.0074,0,0,0,0,0,0,0,0,0.0164,0.016,0.0127,0.0122,0.0117,0.0054,0.0065,0.0026,0.001,0.0048,0.0009,0.0008,-0.0021,-0.0027,-0.0044,-0.0072,-0.0075,-0.0073,-0.0075,-0.0076,-0.0076,0,0,0,0,0,0,0,0.0168,0.0163,0.0126,0.0126,0.012,0.0083,0.0076,0.0057,0.0017,0.0045,0.0041,0.0033,-0.0024,-0.0041,-0.0046,-0.0076,-0.0073,-0.0075,-0.0077,-0.0078,-0.0127,-0.0127,0,0,0,0,0,0,0.0186,0.0166,0.0128,0.0123,0.0141,0.0083,0.0075,0.0074,0.0017,0.0008,0.0034,0.0031,-0.0037,-0.0043,-0.0049,-0.0044,-0.0076,-0.0078,-0.0079,-0.0127,-0.0127,-0.0127,0,0,0,0,0,0,0.0187,0.0183,0.0132,0.0143,0.0135,0.0084,0.0082,0.0072,0.0057,0.0009,-0.0,0.0029,-0.0038,-0.0045,-0.0065,-0.0048,-0.0079,-0.0081,-0.0127,-0.0127,-0.0127,-0.0042,0,0,0,0,0,0,0.0189,0.0185,0.0191,0.0145,0.0135,0.0121,0.0082,0.0071,0.0054,0.0049,0.0002,-0.0006,-0.0039,-0.0061,-0.0067,-0.0051,-0.0083,-0.0128,-0.0127,-0.0127,-0.0044,-0.0039,-0.0033,0,0,0,0,0,0.0191,0.0206,0.0192,0.0188,0.0145,0.0122,0.0113,0.0073,0.0055,0.0056,0.0018,-0.0004,-0.0065,-0.0063,-0.007,-0.0054,-0.0128,-0.0127,-0.0127,-0.0047,-0.004,-0.0034,0,0,0,0,0,0,0.0226,0.0199,0.0184,0.0188,0.0163,0.0112,0.0109,0.0082,0.0052,0.0049,-0.0,-0.001,-0.0023,-0.0053,-0.0049,-0.0071,-0.0101,-0.0102,-0.0037,-0.0031,-0.0026,0.0003,-0.0085,0,0,0,0,0,0.024,0.0246,0.0209,0.0214,0.0205,0.016,0.0145,0.0121,0.0087,0.0072,0.0036,-0.0001,-0.0028,-0.004,-0.007,-0.0076,-0.0104,-0.0074,-0.0068,-0.0063,-0.0046,-0.0077,-0.0072,-0.0127,-0.0127,-0.0127,0,0,0.0253,0.0241,0.0242,0.0222,0.0198,0.0197,0.0149,0.0138,0.0136,0.0072,0.0059,0.0019,-0.0027,-0.0039,-0.0047,-0.006,-0.0065,-0.0063,-0.0058,-0.0044,-0.0077,-0.0071,-0.0066,-0.0127,-0.0127,-0.0127,0,0,0.0286,0.0274,0.0291,0.0278,0.0255,0.023,0.0232,0.0189,0.017,0.0153,0.0105,0.0078,0.0033,0.0005,-0.0015,0.0004,-0.0035,-0.0009,0.0047,0.0017,0.0022,0.0026,-0.0006,-0.0006,-0.0005,-0.0004,-0.0004,0,0.0301,0.0319,0.0291,0.0303,0.0302,0.0252,0.0268,0.0243,0.0198,0.0196,0.0161,0.01,0.0056,0.005,0.0048,0.002,-0.0005,0.003,0.0027,0.003,0.0032,-0.0002,-0.0002,-0.0,-0.0001,-0.0001,-0.0002,0,0.0345,0.036,0.037,0.0372,0.0367,0.0374,0.0342,0.0335,0.0305,0.0277,0.0259,0.0191,0.016,0.0134,0.0095,0.0096,0.0068,0.0038,0.0017,0.0044,0.0005,0.0003,0.0006,0.0004,0.0003,0.0002,0,0,0.0378,0.0398,0.0403,0.0425,0.0408,0.0414,0.0419,0.0415,0.0437,0.0375,0.0393,0.0321,0.0286,0.026,0.0205,0.017,0.0153,0.0119,0.0115,0.0101,0.0088,0.0054,0.0048,0.0124,0.0124,0.0125,0.0053,0,0.0421,0.0474,0.0466,0.0514,0.0539,0.0511,0.0528,0.0519,0.0497,0.0501,0.043,0.0418,0.0334,0.0325,0.0278,0.019,0.0152,0.0175,0.0052,0.0049,0.0028,0.0046,0.0083,0.0022,0.0051,0.005,0.005,0,0.0467,0.0501,0.0563,0.0606,0.0616,0.0639,0.0675,0.0683,0.0671,0.0655,0.0625,0.0565,0.0511,0.0432,0.0301,0.0321,0.0218,0.0136,0.0131,0.0073,0.0012,-0.0002,0.0016,0.0046,0.0046,0.0046,0.0047,0,0.052,0.0569,0.0631,0.0643,0.068,0.0713,0.0733,0.0738,0.0773,0.0762,0.0786,0.0694,0.0667,0.0528,0.0344,0.033,0.0192,0.0149,0.0021,0.0017,0.0011,0.0007,0.006,0.006,0.0061,0.0061,0.0061,0,0.0573,0.0621,0.067,0.0707,0.0794,0.079,0.0879,0.0882,0.0913,0.098,0.088,0.09,0.069,0.0578,0.0397,0.0206,0.0231,0.0042,0.0002,0.004,0.0039,0.0029,0.0026,0.0058,0.0059,0.0059,0.006,0,0.0622,0.0649,0.0728,0.0794,0.0825,0.089,0.0983,0.1048,0.1062,0.1147,0.1151,0.1062,0.092,0.0693,0.0463,0.0291,0.0097,0.0019,0.0074,0.0042,-0.0071,-0.0069,-0.0115,-0.0117,-0.0118,-0.0119,-0.012,0,0.0651,0.07,0.0803,0.0867,0.0906,0.1004,0.1081,0.1122,0.1203,0.1251,0.1305,0.1191,0.1132,0.0777,0.045,0.014,0.009,-0.0039,-0.0067,-0.0052,-0.0086,-0.0082,-0.0078,-0.0045,-0.0045,-0.0046,-0.0046,0,0.0711,0.075,0.0821,0.0956,0.1054,0.1168,0.1284,0.1367,0.1433,0.1497,0.1546,0.1497,0.1177,0.0857,0.0424,0.0218,0.0012,-0.0054,-0.0042,-0.0007,0.0008,-0.0024,-0.0021,-0.0048,-0.0048,-0.0048,-0.0047,-0.0047,0.076,0.0821,0.0924,0.1052,0.1169,0.1318,0.1422,0.1544,0.1672,0.1769,0.1717,0.165,0.1297,0.0744,0.0371,-0.0015,0.0009,-0.013,-0.0126,-0.0123,-0.0103,-0.0091,-0.0162,-0.0162,-0.0162,-0.0163,-0.0163,0,0.0823,0.0897,0.1015,0.1167,0.13,0.1357,0.1549,0.1648,0.1801,0.1873,0.1899,0.1561,0.1206,0.0797,0.0226,-0.0111,-0.0125,-0.0218,-0.0163,-0.0158,-0.0153,-0.0134,-0.0202,-0.0204,-0.0205,-0.0206,0,0,0.0859,0.0974,0.1033,0.1249,0.1362,0.1545,0.1657,0.1793,0.1884,0.1942,0.19,0.1817,0.1325,0.09,0.0445,0.0114,0.0059,0.0056,0.0129,0.0256,0.0263,-0.0058,-0.0016,0,0,0,0,0]}],[{"header":{"parameterUnit":"m.s-1","parameterCategory":2,"la1":30.2991,"la2":30.254,"lo1":-89.0895,"lo2":-89.0444,"dy":0.0017,"dx":0.0017,"nx":28,"ny":28,"refTime":"2024-04-12T09:00:00:Z","depth":"4","parameterNumber":2,"parameterNumberName":"U-component_of_CURRENTS"},"data":[0,0,0,0,0,0,0,0,0,0,0,0,0,0,0,0,0,0,0,0,0,0,0,0,0,0,0,0,0,0,0,0,0,0,0,0,0,0,0,0,0,0,0,0,0,0,0,0,0,0,0,0,0,0,0,0,0,0,0.2027,0.2028,0,0.2092,0.2092,0.2092,0.2137,0.2138,0.2139,0.214,0.2209,0.221,0.2211,0,0,0,0,0,0,0,0,0,0,0,0,0,0.1958,0.1959,0.2027,0.2028,0.203,0.2092,0.2092,0.2092,0.2137,0.2138,0.2139,0.214,0.2209,0.221,0.2211,0,0,0,0,0,0,0,0,0,0,0,0,0,0.1996,0.1959,0.2026,0.2064,0.2068,0.2092,0.2092,0.2092,0.2136,0.2138,0.2139,0.2141,0.2209,0.221,0.2212,0.2193,0,0,0.2216,0.2217,0,0,0,0,0,0,0,0,0.1994,0.1997,0.2057,0.2062,0.2067,0.2113,0.2094,0.2129,0.2136,0.2104,0.214,0.2141,0.2181,0.2185,0.2185,0.2196,0.2199,0.2216,0.2217,0.2218,0.2218,0,0,0,0,0,0,0,0.1991,0.1995,0.2046,0.2059,0.2065,0.2084,0.209,0.21,0.2129,0.2107,0.2112,0.2129,0.2183,0.2183,0.2187,0.22,0.2216,0.2217,0.2218,0.2219,0.2323,0.2325,0,0,0,0,0,0,0.1994,0.1992,0.2044,0.2049,0.204,0.2085,0.2091,0.2092,0.2129,0.2138,0.2128,0.2131,0.218,0.2185,0.2189,0.2288,0.2218,0.2219,0.222,0.2321,0.2323,0.2325,0,0,0,0,0,0,0.1991,0.1997,0.2041,0.2028,0.2036,0.2085,0.2085,0.2092,0.214,0.2146,0.2154,0.2174,0.2181,0.2187,0.2234,0.2287,0.222,0.2221,0.2319,0.2322,0.2324,0.2409,0,0,0,0,0,0,0.1989,0.1995,0.2015,0.2028,0.2037,0.2083,0.2085,0.2093,0.2148,0.2154,0.2187,0.2192,0.2183,0.2232,0.2236,0.2288,0.2222,0.2317,0.232,0.2324,0.2404,0.2415,0.2424,0,0,0,0,0,0.1986,0.2005,0.2015,0.2023,0.2056,0.2085,0.2092,0.2126,0.215,0.2173,0.2198,0.2194,0.2257,0.2235,0.2238,0.2292,0.2315,0.2319,0.2323,0.24,0.2413,0.2423,0,0,0,0,0,0,0.1991,0.2012,0.2024,0.205,0.208,0.2096,0.2133,0.2153,0.2189,0.221,0.2211,0.2217,0.2282,0.2271,0.2246,0.2332,0.2288,0.2294,0.2345,0.2357,0.2367,0.2371,0.2224,0,0,0,0,0,0.1999,0.2021,0.2041,0.2071,0.2089,0.2119,0.2145,0.2167,0.2195,0.2215,0.2239,0.2266,0.2293,0.2314,0.2332,0.2372,0.2375,0.2411,0.2421,0.243,0.2436,0.2485,0.25,0.2339,0.2339,0.2339,0,0,0.2012,0.203,0.2045,0.2075,0.2104,0.2132,0.2138,0.2191,0.2225,0.2216,0.2285,0.2306,0.2313,0.2363,0.2391,0.2367,0.2478,0.2435,0.2442,0.2444,0.2491,0.2507,0.2521,0.2342,0.2342,0.2341,0,0,0.2037,0.2065,0.2086,0.2113,0.2165,0.2179,0.2205,0.2245,0.2279,0.2332,0.2344,0.2396,0.2432,0.2449,0.2459,0.2532,0.2531,0.255,0.2602,0.2651,0.2664,0.2676,0.2703,0.2717,0.2552,0.2552,0.2552,0,0.2055,0.2076,0.2102,0.213,0.2162,0.2204,0.2236,0.2271,0.2327,0.2359,0.237,0.2456,0.2469,0.2528,0.2559,0.2557,0.2578,0.2557,0.2664,0.2676,0.2687,0.2711,0.2726,0.2556,0.2556,0.2555,0.2555,0,0.2077,0.2114,0.2138,0.2179,0.2216,0.2257,0.2302,0.2354,0.2404,0.2436,0.2526,0.255,0.2601,0.2621,0.2615,0.2705,0.2694,0.2674,0.2634,0.2708,0.2729,0.2743,0.2563,0.2561,0.256,0.2559,0,0,0.2054,0.2133,0.2146,0.2174,0.2247,0.2271,0.2344,0.2405,0.2462,0.2532,0.2603,0.2668,0.2705,0.2719,0.2734,0.2778,0.2877,0.277,0.277,0.2796,0.2985,0.2801,0.2797,0.2887,0.289,0.2892,0.297,0,0.2064,0.2119,0.2159,0.2224,0.2254,0.2318,0.2375,0.2445,0.2515,0.2595,0.2655,0.2735,0.2735,0.2784,0.2831,0.2874,0.2916,0.2858,0.2909,0.291,0.2737,0.2807,0.29,0.298,0.2983,0.2985,0.2986,0,0.2056,0.2098,0.2161,0.2241,0.2261,0.2314,0.2415,0.2475,0.2592,0.2652,0.2748,0.2802,0.2905,0.2885,0.2999,0.297,0.299,0.3007,0.3009,0.2814,0.275,0.2889,0.3009,0.3008,0.3006,0.3004,0.3003,0,0.2006,0.2092,0.2145,0.2174,0.2273,0.2327,0.2391,0.2504,0.257,0.2713,0.2785,0.2894,0.2982,0.3031,0.3085,0.3063,0.3185,0.3149,0.2996,0.2983,0.3088,0.3074,0.3217,0.3217,0.3217,0.3217,0.3216,0,0.1972,0.2019,0.2136,0.2164,0.2232,0.2317,0.2409,0.2488,0.2623,0.2702,0.2828,0.2904,0.3032,0.3111,0.3124,0.3102,0.3222,0.3015,0.2995,0.3121,0.311,0.3097,0.3082,0.322,0.3219,0.3218,0.3218,0,0.1903,0.1982,0.2049,0.2171,0.2212,0.2269,0.2414,0.2467,0.2622,0.2735,0.2794,0.2964,0.3064,0.3144,0.3234,0.3144,0.3139,0.3096,0.3236,0.3221,0.2893,0.2882,0.2926,0.292,0.2916,0.2911,0.2908,0,0.1866,0.19,0.2041,0.2078,0.2142,0.2241,0.2294,0.2451,0.2517,0.2739,0.2775,0.2948,0.3032,0.3008,0.3107,0.3109,0.307,0.3038,0.2949,0.289,0.2867,0.2863,0.2859,0.29,0.2899,0.2898,0.2896,0,0.1794,0.1871,0.1926,0.2006,0.2075,0.2132,0.2237,0.2273,0.2448,0.2617,0.2688,0.2738,0.2843,0.2896,0.2926,0.2918,0.3039,0.2986,0.2995,0.2911,0.2859,0.284,0.2841,0.2879,0.2882,0.2883,0.2884,0,0.1746,0.1768,0.1852,0.1902,0.198,0.1994,0.2064,0.2132,0.2219,0.2462,0.2483,0.2651,0.2818,0.28,0.2824,0.2808,0.2758,0.2645,0.267,0.269,0.2575,0.2471,0.2363,0,0,0,0,0,0.1678,0.1683,0.1727,0.1768,0.1837,0.1883,0.2001,0.2078,0.2259,0.2244,0.2357,0.2433,0.2485,0.258,0.2515,0.2723,0.2769,0.2634,0.2652,0.2786,0.2805,0.269,0,0,0,0,0,0,0.1626,0.1674,0.1683,0.1642,0.1646,0.17,0.1771,0.1891,0.1897,0.2094,0.2139,0.2285,0.2378,0.2501,0.2471,0.2497,0.2455,0.2746,0.2739,0.2774,0.2792,0.2808,0.2696,0,0,0,0,0]},{"header":{"parameterUnit":"m.s-1","parameterCategory":2,"la1":30.2991,"la2":30.254,"lo1":-89.0895,"lo2":-89.0444,"dy":0.0017,"dx":0.0017,"nx":28,"ny":28,"refTime":"2024-04-12T09:00:00:Z","depth":"4","parameterNumber":3,"parameterNumberName":"V-component_of_CURRENTS"},"data":[0,0,0,0,0,0,0,0,0,0,0,0,0,0,0,0,0,0,0,0,0,0,0,0,0,0,0,0,0,0,0,0,0,0,0,0,0,0,0,0,0,0,0,0,0,0,0,0,0,0,0,0,0,0,0,0,0,0,0.0176,0.0176,0,0.0135,0.0135,0.0134,0.0108,0.0108,0.0108,0.0108,0.0068,0.0067,0.0066,0,0,0,0,0,0,0,0,0,0,0,0,0,0.0192,0.0192,0.0176,0.0176,0.0175,0.0135,0.0135,0.0134,0.0108,0.0108,0.0108,0.0107,0.0068,0.0067,0.0066,0,0,0,0,0,0,0,0,0,0,0,0,0,0.0172,0.0192,0.0176,0.0157,0.0155,0.0136,0.0135,0.0134,0.0108,0.0108,0.0108,0.0107,0.0068,0.0067,0.0066,0.0062,0,0,0.0061,0.0061,0,0,0,0,0,0,0,0,0.0173,0.0171,0.0161,0.0159,0.0156,0.0127,0.0126,0.011,0.0108,0.0126,0.0107,0.0107,0.0088,0.0085,0.0077,0.006,0.0058,0.0061,0.0061,0.006,0.006,0,0,0,0,0,0,0,0.0174,0.0172,0.016,0.016,0.0158,0.0138,0.0135,0.0122,0.0108,0.0124,0.0122,0.0118,0.0087,0.0079,0.0076,0.0058,0.0061,0.006,0.0059,0.0059,0.0037,0.0037,0,0,0,0,0,0,0.0182,0.0174,0.0161,0.0159,0.0164,0.0138,0.0134,0.0136,0.0108,0.0104,0.0118,0.0117,0.0081,0.0078,0.0075,0.0078,0.006,0.0059,0.0058,0.0036,0.0037,0.0037,0,0,0,0,0,0,0.0183,0.0182,0.0163,0.0165,0.0161,0.0138,0.014,0.0136,0.0132,0.0104,0.01,0.012,0.0081,0.0077,0.007,0.0076,0.0058,0.0057,0.0036,0.0036,0.0037,0.0078,0,0,0,0,0,0,0.0183,0.0182,0.019,0.0166,0.0161,0.0157,0.014,0.0135,0.0129,0.0127,0.0104,0.0099,0.008,0.0072,0.0069,0.0073,0.0056,0.0036,0.0036,0.0037,0.0076,0.0079,0.0082,0,0,0,0,0,0.0184,0.0195,0.019,0.0189,0.0172,0.0158,0.0154,0.0136,0.013,0.0131,0.0116,0.01,0.0072,0.0072,0.0067,0.0072,0.0036,0.0036,0.0037,0.0075,0.0079,0.0082,0,0,0,0,0,0,0.0203,0.0193,0.0187,0.0194,0.018,0.0153,0.0155,0.0142,0.0131,0.0132,0.0105,0.01,0.0095,0.0079,0.0079,0.0066,0.0051,0.005,0.0081,0.0084,0.0087,0.0102,0.0055,0,0,0,0,0,0.0212,0.022,0.0201,0.0207,0.0203,0.0181,0.0175,0.0163,0.0148,0.0143,0.0124,0.0107,0.0093,0.0087,0.007,0.0067,0.0038,0.0066,0.0069,0.0072,0.008,0.0037,0.0037,0.0039,0.0039,0.0039,0,0,0.0219,0.0216,0.0219,0.0212,0.0201,0.0202,0.0177,0.0173,0.0174,0.0141,0.0139,0.0118,0.0094,0.0087,0.0083,0.0076,0.0055,0.0073,0.0075,0.0082,0.0038,0.0038,0.0038,0.0039,0.0039,0.0039,0,0,0.0239,0.0238,0.025,0.0245,0.0235,0.0222,0.0225,0.0203,0.0195,0.0189,0.0165,0.0147,0.0128,0.0108,0.0097,0.0109,0.0072,0.0105,0.0133,0.0092,0.0091,0.009,0.0048,0.0043,0.0107,0.0107,0.0107,0,0.0247,0.0264,0.025,0.026,0.0263,0.0236,0.0249,0.0235,0.0214,0.0214,0.0195,0.0161,0.0136,0.0128,0.013,0.0116,0.0087,0.0122,0.0096,0.0094,0.0093,0.0049,0.0043,0.0109,0.0109,0.0109,0.0109,0,0.0274,0.0289,0.0297,0.0305,0.0304,0.0311,0.0294,0.0292,0.0277,0.0261,0.0248,0.0206,0.0189,0.0171,0.0155,0.0138,0.0119,0.0103,0.0087,0.0095,0.0049,0.0042,0.0112,0.0112,0.0111,0.011,0,0,0.029,0.0312,0.0317,0.0337,0.0332,0.0338,0.0343,0.0343,0.0357,0.0317,0.0323,0.0279,0.0255,0.0241,0.0208,0.0167,0.0124,0.0137,0.0134,0.0097,0.0031,0.003,0.0022,0.0103,0.0103,0.0102,0.0001,0,0.0317,0.0357,0.0357,0.0394,0.0414,0.0402,0.0415,0.0411,0.0396,0.0393,0.034,0.0332,0.0282,0.0277,0.0227,0.0156,0.0109,0.0153,0.0027,0.0024,0.0023,0.0015,0.0099,-0.0004,-0.0006,-0.0007,-0.0008,0,0.0343,0.0371,0.0419,0.0456,0.0465,0.0486,0.0513,0.052,0.0504,0.0494,0.0464,0.0421,0.0366,0.0319,0.0189,0.0221,0.0134,0.0065,0.0059,0.0042,0.001,-0.0014,-0.0021,-0.002,-0.0019,-0.0018,-0.0018,0,0.0373,0.0414,0.0462,0.0474,0.0508,0.0537,0.0555,0.0558,0.0583,0.0562,0.0571,0.0489,0.046,0.0337,0.0194,0.0193,0.0041,0.0019,-0.007,-0.0072,-0.0059,-0.0057,-0.008,-0.008,-0.008,-0.0079,-0.0079,0,0.0402,0.044,0.0489,0.0517,0.0586,0.0589,0.0656,0.0659,0.0675,0.0712,0.0633,0.063,0.0464,0.0357,0.0215,0.0055,0.0053,-0.0065,-0.0096,-0.004,-0.0035,-0.0064,-0.0061,-0.0083,-0.0082,-0.0082,-0.0081,0,0.0426,0.0455,0.0517,0.0576,0.0606,0.0657,0.0737,0.0778,0.0784,0.0826,0.0825,0.0738,0.0602,0.042,0.0217,0.0097,-0.0067,-0.0126,-0.0051,-0.0076,-0.016,-0.0153,-0.0233,-0.0234,-0.0234,-0.0235,-0.0235,0,0.0441,0.0479,0.057,0.0623,0.066,0.0741,0.08,0.0835,0.0884,0.0891,0.0914,0.0803,0.0719,0.0438,0.0235,-0.0042,-0.0084,-0.0176,-0.0173,-0.0152,-0.0175,-0.0167,-0.016,-0.0237,-0.0237,-0.0237,-0.0237,0,0.0472,0.051,0.0567,0.0677,0.0758,0.0847,0.0935,0.0979,0.1017,0.102,0.0994,0.0845,0.069,0.0456,0.024,0.0039,-0.012,-0.0184,-0.0184,-0.0182,-0.0158,-0.0178,-0.017,-0.024,-0.0239,-0.0239,-0.0239,0,0.0501,0.0546,0.0629,0.0728,0.0831,0.0929,0.0969,0.1029,0.1075,0.1078,0.1065,0.089,0.079,0.0498,0.0298,0.0101,0.0047,-0.0026,-0.0035,-0.0035,0.0048,0.011,0.0085,0,0,0,0,0,0.0527,0.0584,0.0673,0.0782,0.0884,0.095,0.1051,0.1082,0.1118,0.1112,0.1095,0.095,0.0663,0.0539,0.0343,0.0266,-0.0002,0.0027,-0.0093,-0.0253,-0.025,-0.0187,0,0,0,0,0,0,0.0545,0.0629,0.0673,0.0813,0.0894,0.1012,0.108,0.1102,0.1105,0.1106,0.0963,0.0893,0.0617,0.0778,0.0338,0.0278,0.0172,-0.0104,-0.0109,-0.0255,-0.0252,-0.025,-0.0184,0,0,0,0,0]}]]